Location: Adelaide
(34.9285°S, 138.6007°E)
Time: 15:47:50
(UTC+10:30)

Envisat - Pass Details

Date: 23 November 2019
Orbit: 764 x 766 km, 98.1° (Epoch: 10 December)

Event Time Altitude Azimuth Distance (km) Brightness Sun altitude
Rises 21:33:17 0° 192° (SSW) 3,268 7.1 -15.8°
Reaches altitude 10° 21:37:05 10° 221° (SW) 2,331 6.8 -16.4°
Maximum altitude 21:39:03 12° 243° (WSW) 2,173 6.5 -16.7°
Drops below altitude 10° 21:41:01 10° 266° (W) 2,320 6.3 -17.0°
Sets 21:44:47 0° 295° (WNW) 3,235 6.6 -17.6°
